Location: Berkeley
(37.8716°N, 122.2727°W)
Time: 08:05:49
(UTC-07:00)

BlueWalker 3 - Visible Passes

Search period start: 10 May 2026 00:00
Search period end: 20 May 2026 00:00
Orbit: 448 x 458 km, 53.2° (Epoch: 10 May)

Date Brightness Start Highest point End Pass type
(mag) Time Alt. Az. Time Alt. Az. Time Alt. Az.
10 May 3.7 03:28:13 23° NNW 03:28:13 23° NNW 03:30:40 10° NNE visible
11 May 4.3 02:52:32 20° NNE 02:52:32 20° NNE 02:54:04 10° NNE visible
12 May 4.9 02:16:49 14° NNE 02:16:49 14° NNE 02:17:25 10° NE visible
12 May 4.7 03:51:55 10° NNW 03:52:16 10° NNW 03:52:37 10° NNW visible
13 May 4.6 03:14:39 11° NNW 03:15:19 12° NNW 03:16:40 10° N visible
14 May 4.7 02:38:49 14° NNW 02:38:49 14° NNW 02:40:17 10° N visible
15 May 4.9 02:02:54 13° N 02:02:54 13° N 02:03:47 10° NNE visible
16 May 5.1 01:26:56 11° NNE 01:26:56 11° NNE 01:27:13 10° NNE visible
18 May 4.7 05:04:11 10° NNW 05:06:37 17° NNE 05:09:02 10° ENE visible
19 May 5.1 01:11:37 10° NNW 01:11:59 10° NNW 01:12:44 10° N visible
19 May 4.9 04:27:38 10° N 04:29:39 14° NNE 04:31:39 10° ENE visible
